Concordia, KS

10:30 AM CDT on June 28, 2017 (GMT -0500)
Blosser Municipal

Weather History for KCNK - March, 2014

Change the Weather History Date:

Monday, March 24, 2014

  Actual Average Record
Temperature  
Mean Temperature 36 °F 46 °F  
Max Temperature 48 °F 58 °F 83 °F (1907)
Min Temperature 24 °F 34 °F 8 °F (1965)
Degree Days  
Heating Degree Days 29 19  
Month to date heating degree days 663 558  
Since 1 July heating degree days 5145 4765  
Cooling Degree Days 0 0  
Month to date cooling degree days 0 0  
Year to date cooling degree days 0 0  
Moisture  
Dew Point 24 °F    
Average Humidity 62    
Maximum Humidity 92    
Minimum Humidity 31    
Precipitation  
Precipitation 0.10 in 0.07 in 1.03 in (1962)
Month to date precipitation 0.22 1.44  
Year to date precipitation 1.41 2.81  
Snow  
Snow 0.80 in 0.20 in 4.50 in (1971)
Month to date snowfall 2.2 2.1  
Year to date snowfall 16.9 12.5  
Since 1 July snowfall 23.2 19.0  
Snow Depth T in    
Sea Level Pressure  
Sea Level Pressure 30.25 in    
Wind  
Wind Speed 10 mph (North)    
Max Wind Speed 25 mph    
Max Gust Speed 32 mph    
Visibility 5 miles    
Events Fog , Snow    
T = Trace of Precipitation, MM = Missing Value Source: NWS Daily Summary

Daily Weather History Graph

Daily Weather History Graph

Search for Another Location

Airport or City:

Trip Planner

Search our weather history database for the weather conditions in past years. The results will help you decide how hot, cold, wet, or windy it might be!

Date:

Astronomy

Mar. 24, 2014 Rise Set
Actual Time 7:27 AM CDT 7:46 PM CDT
Civil Twilight 7:00 AM CDT 8:13 PM CDT
Nautical Twilight 6:29 AM CDT 8:45 PM CDT
Astronomical Twilight 5:56 AM CDT 9:17 PM CDT
Moon 2:57 AM CDT (3/24) 1:14 PM CDT (3/24)
Length of Visible Light 13h 12m
Length of Day
12h 19m
Last Quarter, 43% of the Moon is Illuminated
Mar 24
Last Quarter
Mar 30
New
Apr 7
First Quarter
Apr 15
Full
Apr 22
Last Quarter

Hourly Weather History & Observations

Time (CDT) Temp. Windchill Dew Point Humidity Pressure Visibility Wind Dir Wind Speed Gust Speed Precip Events Conditions
12:55 AM 26.1 °F 15.6 °F 15.1 °F 63% 30.26 in 10.0 mi SSE 11.5 mph - N/A   Clear
1:55 AM 25.0 °F 18.1 °F 14.0 °F 63% 30.25 in 10.0 mi East 5.8 mph - N/A   Clear
2:55 AM 24.1 °F 17.0 °F 15.1 °F 69% 30.26 in 10.0 mi ENE 5.8 mph - N/A   Clear
3:55 AM 26.1 °F 19.4 °F 16.0 °F 66% 30.25 in 10.0 mi ESE 5.8 mph - N/A   Overcast
4:55 AM 27.0 °F 20.5 °F 17.1 °F 66% 30.24 in 10.0 mi East 5.8 mph - N/A   Overcast
5:27 AM 28.0 °F 20.0 °F 18.0 °F 66% 30.21 in 8.0 mi ENE 8.1 mph - 0.00 in Snow Light Snow
5:55 AM 27.0 °F 19.5 °F 21.0 °F 78% 30.24 in 6.0 mi East 6.9 mph - 0.00 in Snow Light Snow
6:46 AM 28.0 °F 21.7 °F 21.0 °F 75% 30.19 in 2.5 mi SE 5.8 mph - 0.00 in Snow Light Snow
6:55 AM 28.0 °F 21.7 °F 21.9 °F 78% 30.23 in 3.0 mi ESE 5.8 mph - 0.01 in Snow Light Snow
7:51 AM 28.4 °F 22.2 °F 23.0 °F 80% 30.21 in 1.8 mi SE 5.8 mph - 0.00 in Snow Light Snow
7:55 AM 28.0 °F 20.0 °F 23.0 °F 81% 30.25 in 1.8 mi SSE 8.1 mph - 0.00 in Snow Light Snow
8:01 AM 28.9 °F 19.8 °F 23.0 °F 78% 30.21 in 1.2 mi SSE 10.4 mph - 0.00 in Snow Light Snow
8:05 AM 28.0 °F 18.6 °F 23.0 °F 81% 30.21 in 0.8 mi SSE 10.4 mph - 0.00 in Snow Light Snow
8:24 AM 28.0 °F 19.3 °F 25.0 °F 88% 30.21 in 0.2 mi South 9.2 mph - 0.01 in Fog , Snow Snow
8:52 AM 28.4 °F 21.2 °F 26.6 °F 93% 30.21 in 1.2 mi South 6.9 mph - 0.03 in Snow Light Snow
8:55 AM 28.0 °F 20.8 °F 27.0 °F 96% 30.26 in 1.0 mi South 6.9 mph - 0.03 in Snow Light Snow
9:03 AM 28.0 °F 20.8 °F 28.0 °F 100% 30.21 in 0.5 mi South 6.9 mph - 0.01 in Fog , Snow Snow
9:15 AM 28.9 °F 21.1 °F 28.0 °F 96% 30.22 in 0.2 mi South 8.1 mph - 0.01 in Fog , Snow Snow
9:35 AM 28.9 °F 20.4 °F 28.0 °F 96% 30.23 in 1.2 mi South 9.2 mph - 0.03 in Snow Light Snow
9:39 AM 28.9 °F 21.1 °F 28.0 °F 96% 30.23 in 1.8 mi SSW 8.1 mph - 0.03 in Snow Light Snow
9:47 AM 28.9 °F 21.9 °F 27.0 °F 92% 30.24 in 2.5 mi WSW 6.9 mph - 0.03 in Snow Light Snow
9:55 AM 30.0 °F 21.7 °F 27.0 °F 88% 30.31 in 2.0 mi NNW 9.2 mph - 0.03 in Snow Light Snow
9:57 AM 30.0 °F 22.4 °F 27.0 °F 88% 30.26 in 1.5 mi NW 8.1 mph - 0.00 in Snow Light Snow
10:01 AM 28.9 °F 19.8 °F 27.0 °F 92% 30.26 in 0.8 mi NNW 10.4 mph - 0.00 in Snow Light Snow
10:22 AM 30.0 °F 22.4 °F 28.0 °F 92% 30.27 in 1.0 mi NNW 8.1 mph - 0.01 in Snow Light Snow
10:29 AM 30.0 °F 22.4 °F 28.9 °F 96% 30.27 in 0.5 mi NNW 8.1 mph - 0.02 in Fog , Snow Snow
10:43 AM 30.0 °F 25.2 °F 28.9 °F 96% 30.27 in 0.8 mi NNW 4.6 mph - 0.03 in Snow Light Snow
10:49 AM 30.2 °F 25.4 °F 28.4 °F 93% 30.26 in 1.5 mi NW 4.6 mph - 0.03 in Snow Light Snow
10:50 AM 30.0 °F 26.5 °F 28.9 °F 96% 30.31 in 1.5 mi NW 3.5 mph - 0.03 in Snow Light Snow
10:59 AM 30.9 °F - 28.9 °F 92% 30.26 in 2.0 mi Calm Calm - 0.00 in Snow Light Snow
11:08 AM 30.0 °F - 28.9 °F 96% 30.26 in 1.5 mi Calm Calm - 0.00 in Snow Light Snow
11:17 AM 30.9 °F - 30.0 °F 96% 30.25 in 2.0 mi Calm Calm - 0.00 in Snow Light Snow
11:30 AM 30.9 °F 25.2 °F 28.9 °F 92% 30.25 in 6.0 mi SSW 5.8 mph - 0.00 in Snow Light Snow
11:37 AM 30.9 °F 26.2 °F 30.0 °F 96% 30.25 in 8.0 mi South 4.6 mph - 0.00 in   Overcast
11:55 AM 34.0 °F 31.0 °F 30.0 °F 85% 30.30 in 10.0 mi West 3.5 mph - 0.00 in   Overcast
12:55 PM 37.9 °F 30.9 °F 28.9 °F 70% 30.29 in 10.0 mi North 10.4 mph - N/A   Overcast
1:55 PM 44.1 °F 36.2 °F 30.0 °F 58% 30.26 in 10.0 mi North 18.4 mph 25.3 mph N/A   Partly Cloudy
2:55 PM 46.9 °F - 24.1 °F 41% 30.24 in 10.0 mi NNW 23.0 mph 28.8 mph N/A   Scattered Clouds
3:55 PM 46.0 °F 38.0 °F 21.0 °F 37% 30.25 in 10.0 mi North 21.9 mph 29.9 mph N/A   Partly Cloudy
4:55 PM 46.0 °F 39.0 °F 19.0 °F 34% 30.23 in 10.0 mi North 17.3 mph 28.8 mph N/A   Scattered Clouds
5:55 PM 46.0 °F 38.5 °F 18.0 °F 33% 30.23 in 10.0 mi North 19.6 mph 26.5 mph N/A   Partly Cloudy
6:55 PM 44.1 °F 36.8 °F 18.0 °F 35% 30.25 in 10.0 mi North 16.1 mph 24.2 mph N/A   Clear
7:55 PM 39.0 °F 31.8 °F 18.0 °F 43% 30.28 in 10.0 mi North 11.5 mph - N/A   Clear
8:55 PM 35.1 °F 27.9 °F 18.0 °F 50% 30.29 in 10.0 mi North 9.2 mph - N/A   Clear
9:55 PM 34.0 °F - 17.1 °F 50% 30.30 in 10.0 mi Calm Calm - N/A   Clear
10:55 PM 32.0 °F 27.5 °F 17.1 °F 54% 30.31 in 10.0 mi WNW 4.6 mph - N/A   Clear
11:55 PM 30.0 °F 24.1 °F 17.1 °F 59% 30.31 in 10.0 mi WNW 5.8 mph - N/A   Mostly Cloudy